DW2893 Weather Reports


Display with metric or nautical units.
time (UTC)temp
F
wind
direction
speed
MPH
gust
MPH
rain 1hr
in
rain 24hr
in
rain mn
in
humidity
%
barometer
mb
20260902222808 98 69 5.0 10.0 0.00 0.00 0.00 42 1009.8
20260902215308 98 58 6.0 12.0 0.00 0.00 0.00 41 1010.0
20260902213808 99 83 5.0 10.0 0.00 0.00 0.00 42 1010.2
20260902210808 98 94 5.0 12.0 0.00 0.00 0.00 43 1010.5
20260902210308 98 64 6.0 15.0 0.00 0.00 0.00 43 1010.5
20260902205808 98 49 3.0 10.0 0.00 0.00 0.00 43 1010.6
20260902203308 98 57 4.0 10.0 0.00 0.00 0.00 44 1010.9
20260902202808 98 98 3.0 8.0 0.00 0.00 0.00 44 1011.0
20260902201807 98 73 6.0 12.0 0.00 0.00 0.00 43 1011.2
20260902200807 98 44 4.0 12.0 0.00 0.00 0.00 44 1011.5
20260902200308 99 79 8.0 15.0 0.00 0.00 0.00 43 1011.5
20260902194808 97 145 6.0 12.0 0.00 0.00 0.00 45 1011.7
20260902194308 96 77 2.0 12.0 0.00 0.00 0.00 47 1011.7
20260902191308 97 93 2.0 6.0 0.00 0.00 0.00 48 1012.2
20260902184807 95 122 3.0 8.0 0.00 0.00 0.00 48 1012.8
20260902183807 95 85 5.0 12.0 0.00 0.00 0.00 50 1012.7
20260902174807 94 81 3.0 12.0 0.00 0.00 0.00 52 1013.9
20260902174307 94 55 4.0 12.0 0.00 0.00 0.00 52 1013.9
20260902171308 92 93 5.0 8.0 0.00 0.00 0.00 55 1014.5
20260902161807 91 67 3.0 8.0 0.00 0.00 0.00 59 1014.8
20260902160807 91 166 1.0 7.0 0.00 0.00 0.00 60 1014.9
20260902160307 90 121 3.0 7.0 0.00 0.00 0.00 61 1014.9
20260902155806 90 74 3.0 9.0 0.00 0.00 0.00 62 1014.9
20260902154807 90 166 5.0 10.0 0.00 0.00 0.00 62 1014.9
20260902154307 90 156 4.0 6.0 0.00 0.00 0.00 62 1014.9
20260902153306 89 149 1.0 7.0 0.00 0.00 0.00 64 1014.7
20260902152806 89 173 5.0 8.0 0.00 0.00 0.00 64 1014.7
20260902152308 88 152 3.0 7.0 0.00 0.00 0.00 65 1014.7
20260902144806 85 159 1.0 5.0 0.00 0.00 0.00 69 1014.6
20260902144307 84 170 2.0 6.0 0.00 0.00 0.00 71 1014.5
20260902143306 84 139 2.0 7.0 0.00 0.00 0.00 72 1014.5
20260902142306 83 137 2.0 7.0 0.00 0.00 0.00 73 1014.5
20260902141806 83 92 3.0 9.0 0.00 0.00 0.00 74 1014.5
20260902140307 82 111 5.0 7.0 0.00 0.00 0.00 74 1014.5
20260902135307 82 104 5.0 7.0 0.00 0.00 0.00 74 1014.4
20260902133306 81 147 3.0 8.0 0.00 0.00 0.00 75 1014.4
20260902132806 81 112 5.0 9.0 0.00 0.00 0.00 75 1014.4
20260902132307 81 120 4.0 8.0 0.00 0.00 0.00 75 1014.3
20260902131806 81 91 5.0 10.0 0.00 0.00 0.00 75 1014.3
20260902131306 80 123 3.0 7.0 0.00 0.00 0.00 76 1014.3
20260902130807 80 100 4.0 6.0 0.00 0.00 0.00 76 1014.2
20260902130306 80 95 3.0 8.0 0.00 0.00 0.00 77 1014.1
20260902125806 79 105 4.0 8.0 0.00 0.00 0.00 77 1014.1
20260902125306 79 103 3.0 7.0 0.00 0.00 0.00 77 1013.8
20260902124806 79 95 5.0 7.0 0.00 0.00 0.00 77 1013.8
20260902123806 79 109 4.0 8.0 0.00 0.00 0.00 78 1013.8
20260902115806 79 113 3.0 6.0 0.00 0.00 0.00 76 1013.8
20260902115308 79 114 3.0 6.0 0.00 0.00 0.00 76 1013.8
20260902114806 79 128 5.0 8.0 0.00 0.00 0.00 76 1013.8
20260902112806 79 150 2.0 3.0 0.00 0.00 0.00 76 1013.8
20260902110806 80 150 1.0 2.0 0.00 0.00 0.00 74 1013.9
20260902105806 80 150 1.0 3.0 0.00 0.00 0.00 73 1013.9
20260902105306 80 150 1.0 2.0 0.00 0.00 0.00 73 1013.8
20260902104806 80 150 1.0 3.0 0.00 0.00 0.00 73 1013.7
20260902104306 80 150 2.0 3.0 0.00 0.00 0.00 72 1013.8
20260902103806 80 150 2.0 3.0 0.00 0.00 0.00 72 1013.8
20260902103306 81 150 2.0 6.0 0.00 0.00 0.00 72 1013.7
20260902102806 81 146 2.0 5.0 0.00 0.00 0.00 71 1013.7
20260902102308 81 151 1.0 3.0 0.00 0.00 0.00 71 1013.7
20260902101806 81 150 1.0 3.0 0.00 0.00 0.00 71 1013.6
20260902101306 81 150 1.0 3.0 0.00 0.00 0.00 70 1013.6
20260902100305 81 151 2.0 3.0 0.00 0.00 0.00 70 1013.6
20260902095806 81 151 2.0 3.0 0.00 0.00 0.00 70 1013.6
20260902095307 82 151 2.0 5.0 0.00 0.00 0.00 70 1013.6
20260902093305 82 150 4.0 6.0 0.00 0.00 0.00 69 1013.5
20260902092806 82 157 2.0 5.0 0.00 0.00 0.00 69 1013.5
20260902091306 82 157 2.0 5.0 0.00 0.00 0.00 68 1013.6
20260902090806 83 155 3.0 6.0 0.00 0.00 0.00 68 1013.6
20260902090306 83 158 4.0 6.0 0.00 0.00 0.00 67 1013.6
20260902084806 83 153 4.0 7.0 0.00 0.00 0.00 67 1013.6
20260902083305 83 173 4.0 7.0 0.00 0.00 0.00 67 1013.6
20260902082805 83 139 5.0 8.0 0.00 0.00 0.00 67 1013.5
20260902082309 83 138 5.0 10.0 0.00 0.00 0.00 67 1013.6
20260902081306 83 141 6.0 12.0 0.00 0.00 0.00 66 1013.6
20260902080306 83 89 5.0 10.0 0.00 0.00 0.00 66 1013.6
20260902075805 84 111 5.0 8.0 0.00 0.00 0.00 66 1013.6
20260902074805 84 140 6.0 8.0 0.00 0.00 0.00 66 1013.7
20260902074305 84 147 6.0 9.0 0.00 0.00 0.00 66 1013.6
20260902073805 84 71 5.0 10.0 0.00 0.00 0.00 66 1013.7
20260902071806 84 119 5.0 10.0 0.00 0.00 0.00 66 1013.7
20260902071305 85 153 5.0 9.0 0.00 0.00 0.00 66 1013.7
20260902070805 85 33 6.0 12.0 0.00 0.00 0.00 66 1013.7
20260902065307 85 10 8.0 17.0 0.00 0.00 0.00 65 1013.5
20260902064806 85 17 9.0 15.0 0.00 0.00 0.00 65 1013.5
20260902064306 85 80 9.0 16.0 0.00 0.00 0.00 65 1013.5
20260902063805 85 148 7.0 14.0 0.00 0.00 0.00 65 1013.5
20260902062805 85 41 6.0 17.0 0.00 0.00 0.00 64 1013.5
20260902062306 85 17 7.0 13.0 0.00 0.00 0.00 64 1013.5
20260902055307 86 32 7.0 15.0 0.00 0.00 0.00 63 1013.5
20260902053305 87 17 10.0 17.0 0.00 0.00 0.00 63 1013.4
20260902052307 87 10 9.0 17.0 0.00 0.00 0.00 62 1013.2
20260902051805 87 2 5.0 13.0 0.00 0.00 0.00 61 1013.2
20260902050321 88 9 6.0 13.0 0.00 0.00 0.00 61 1013.3
20260902045306 88 13 9.0 13.0 0.00 0.00 0.00 60 1013.0
20260902044305 88 21 7.0 12.0 0.00 0.00 0.00 59 1013.0
20260902043305 89 5 9.0 17.0 0.00 0.00 0.00 58 1013.0
20260902042805 89 43 7.0 13.0 0.00 0.00 0.00 57 1013.0
20260902041304 90 124 6.0 12.0 0.00 0.00 0.00 56 1013.0
20260902035804 90 121 3.0 7.0 0.00 0.00 0.00 55 1012.9
20260902035305 90 111 3.0 6.0 0.00 0.00 0.00 55 1012.9
20260902034304 90 102 3.0 6.0 0.00 0.00 0.00 54 1013.0
20260902032805 91 111 4.0 6.0 0.00 0.00 0.00 54 1013.0
20260902031805 91 18 3.0 8.0 0.00 0.00 0.00 53 1012.5
20260902031305 91 126 4.0 7.0 0.00 0.00 0.00 53 1012.5
20260902030305 91 138 2.0 5.0 0.00 0.00 0.00 52 1012.5
20260902025804 91 136 2.0 6.0 0.00 0.00 0.00 52 1012.5
20260902025306 91 135 2.0 7.0 0.00 0.00 0.00 52 1012.4
20260902024804 92 143 3.0 6.0 0.00 0.00 0.00 52 1012.4
20260902020804 92 119 2.0 7.0 0.00 0.00 0.00 50 1012.0
20260902020305 92 110 4.0 8.0 0.00 0.00 0.00 50 1011.8
20260902015306 92 136 3.0 6.0 0.00 0.00 0.00 50 1011.6
20260902014305 93 137 2.0 3.0 0.00 0.00 0.00 49 1011.5
20260902013304 93 137 3.0 6.0 0.00 0.00 0.00 48 1011.4
20260902012804 93 132 3.0 6.0 0.00 0.00 0.00 48 1011.4
20260902012309 93 124 3.0 6.0 0.00 0.00 0.00 48 1011.4
20260902011805 93 135 4.0 6.0 0.00 0.00 0.00 47 1011.4
20260902010804 94 131 2.0 5.0 0.00 0.00 0.00 47 1011.2
20260902005306 94 112 3.0 6.0 0.00 0.00 0.00 46 1011.3
20260902004804 95 94 3.0 6.0 0.00 0.00 0.00 45 1011.4
20260902003805 95 140 4.0 8.0 0.00 0.00 0.00 45 1011.4
20260902001808 96 106 3.0 6.0 0.00 0.00 0.00 45 1011.6
20260902001309 96 94 5.0 7.0 0.00 0.00 0.00 45 1011.6
20260901235308 96 119 3.0 12.0 0.00 0.00 0.00 44 1011.5
20260901234308 97 115 6.0 12.0 0.00 0.00 0.00 44 1011.5
20260901233808 97 100 6.0 10.0 0.00 0.00 0.00 44 1011.5
20260901231308 97 84 7.0 13.0 0.00 0.00 0.00 44 1011.8
20260901230808 97 18 8.0 12.0 0.00 0.00 0.00 43 1011.8
20260901230308 97 102 7.0 17.0 0.00 0.00 0.00 43 1011.7
20260901225808 97 83 5.0 9.0 0.00 0.00 0.00 42 1011.7